Regional Weather Roundup
Issued by NWS Northern Indiana

Home | Current Version | Previous Version | Text Only | Print | Product List | Glossary On
Versions: 1 2 3 4 5 6 7 8 9 10 11 12 13 14 15 16 17 18 19 20 21 22 23 24 25 26 27 28 29 30 31 32 33 34 35 36 37 38 39 40 41 42 43 44 45 46 47 48 49 50
000
ASUS43 KIWX 030410
RWRIWX

KIWX WEATHER ROUNDUP
NATIONAL WEATHER SERVICE NORTHERN INDIANA
1200 AM EDT THU SEP 03 2015

NOTE: "FAIR" INDICATES FEW OR NO CLOUDS BELOW 12,000 FEET WITH NO
SIGNIFICANT WEATHER AND/OR OBSTRUCTIONS TO VISIBILITY.

* THESE STATIONS ARE NOT UNDER NWS QUALITY CONTROL. THEY ALSO MAY NOT
  REPORT WEATHER SUCH AS PRECIPITATION OR FOG.

INZ001>027-030500-
NORTHERN INDIANA

CITY           SKY/WX    TMP DP  RH WIND       PRES   REMARKS
GARY*          PTCLDY    73  68  85 CALM      29.99S
VALPARAISO     MOCLDY    78  69  73 S3        30.01R
MICHIGAN CITY* MOCLDY    73  68  83 CALM      30.00S
LAPORTE*       MOCLDY   N/A N/A N/A CALM      30.01S
KNOX*          MOCLDY    72  72 100 CALM      29.99F
SOUTH BEND     PTCLDY    74  68  81 CALM      30.01S
GOSHEN         MOCLDY    73  68  84 CALM      30.01F
MONTICELLO*    MOCLDY    76  71  87 CALM      30.01S
LOGANSPORT*    MOCLDY    70  64  83 S3        30.03S
ROCHESTER*     MOCLDY    73  72  94 CALM      30.02F
WARSAW*        MOCLDY    70  70 100 CALM      30.02S
ANGOLA*        CLOUDY    72  66  83 CALM      30.02S VSB 1/4
FORT WAYNE     MOCLDY    74  69  85 SW3       30.03R
HUNTINGTON*    PTCLDY    73  67  81 CALM      30.02S
PERU/GRISSOM   MOCLDY    74  69  85 S3        30.02S
MARION*        PTCLDY    70  63  77 CALM      30.04S

$$
INZ028>050-030500-
CENTRAL INDIANA

CITY           SKY/WX    TMP DP  RH WIND       PRES   REMARKS
LAFAYETTE      PTCLDY    72  68  87 CALM      30.01S
KOKOMO*        MOCLDY    72  64  78 CALM      30.03S
MUNCIE*        CLEAR     72  66  81 SW5       30.04S
INDIANAPOLIS   MOCLDY    76  67  73 SW5       30.03F

$$
MIZ043>046-050>051-056>058-064>065-071>073-077>080-030500-
SOUTHWEST LOWER MICHIGAN

CITY           SKY/WX    TMP DP  RH WIND       PRES   REMARKS
BATTLE CREEK   PTCLDY    74  69  85 CALM      30.01F
BENTON HARBOR  PTCLDY    71  68  90 CALM      29.99S
COLDWATER*     PTCLDY    70  70  99 CALM      30.01S FOG
HILLSDALE*     PTCLDY    69  69 100 CALM      30.02S FOG
HOLLAND        MOCLDY    75  70  84 CALM      29.99S
GRAND RAPIDS   MOCLDY    73  70  90 S6        29.98F
KALAMAZOO      PTCLDY    73  69  87 S5        30.00S
STURGIS*       PTCLDY    72  70  94 CALM      30.01S
THREE RIVERS*  FAIR      73  70  92 CALM      30.01F

$$
OHZ001>008-015>018-024>025-030500-
NORTHWEST OHIO

CITY           SKY/WX    TMP DP  RH WIND       PRES   REMARKS
WAUSEON*       FAIR      70  70 100 W3        30.00S
DEFIANCE       PTCLDY    73  68  84 CALM      30.01R
FINDLAY        MOCLDY    73  69  87 SW7       30.01S
TOLEDO EXPRESS PTCLDY    71  69  93 CALM      29.99S
TOLEDO METCALF CLEAR     74  69  85 SW5       29.99S
LIMA           MOCLDY    72  64  76 W9        30.05R

$$
AND FOR LAKE MICHIGAN COASTAL AND OPEN LAKE BUOY OBSERVATIONS

STATION/POSITION TEMP    WIND        PRES    VSBY  WAVE
                 AIR SEA DIR/SP/G                  HT/PER
                 (F)     (DEG/KT/KT) (MB)    (MI)  (FT/S)
CALUMET HARBOR    81     180/  4/  4   N/A
MICHIGAN CITY     82     160/  8/ 10   N/A
BURNS HARBOR      80     190/  7/  8 1015.9R
SAINT JOSEPH      77     130/  3/  7 1015.6F
SOUTH LAKE BUOY   73 71  170/  6/  6 1014.3R
4 MI NW BRIDGMAN  76 74  230/  6/  8   N/A           1
MICHIGAN CITY     77 73  200/  6/  8   N/A           1

$$
&&


USA.gov is the U.S. government's official web portal to all federal, state and local government web resources and services.